STARLINK-1292 (45394 NORAD) Tracking and Keplerian Element Data

This shows tracking and keplerian element data for the satellite.

Feedback or suggestion? Click here.




ElementValue
Catalog45394
NameSTARLINK-1292
Epoch Orbit180
Epoch Day188.91667824
Epoch Year2020
RAAN87.1682
Inclination52.9998
Eccentricity0.0001799
Argument of Perigee77.6999
Mean Anonmoly238.8578
Mean Motion15.05600624
Decay Rate-0.00027486
L11 45394U 20019AL 20188.91667824 -.00027486 00000-0 -18735-2 0 9994
L22 45394 52.9998 87.1682 0001799 77.6999 238.8578 15.05600624 1803

Live tracking and technical data element details for STARLINK-1292 (NORAD 45394). STARLINK-1292 can be tracked NOW for your location showing map with azimuth and elevation plus other details from your city location.

Track the satellite on the map from your city or location and see movement details for azimuth, elevation, latitude, longitude, range, height, and movement on the map or in text.







IsCatalogInMostPopularTable: catalog: 45394, numindb: 21
Update: records affected: 1



GetName: 45394 STARLINK-1292

Hit Count: updated at: Wed, 08 Jul 2020 05:41:53 GMT